Location: Newark
(48.0000°N, 67.0000°E)
Time: 04:22:37
(UTC+00:00)

DUCHIFAT 1 - Pass Details

Date: 11 April 2020
Orbit: 586 x 604 km, 97.9° (Epoch: 27 May)

Event Time Altitude Azimuth Distance (km) Brightness Sun altitude
Rises 22:07:59 0° 360° (N) 2,834 ? -23.7°
Reaches altitude 10° 22:10:43 10° 341° (NNW) 1,925 ? -23.4°
Enters shadow 22:12:54 17° 310° (NW) 1,500 ? -23.2°
